Hourly Data Report for April 03, 2012

HALIFAX STANFIELD INT'L A
NOVA SCOTIA

44°52'48.060" N
63°30'00.050" W
145.40 m
8202250
71395
YHZ

Download Data

Hourly Data (April 2012)
Hourly Data Report for April 3, 2012
TIME
LST
Temp Definition
°C
Dew Point Definition
°C
Rel Hum Definition
%
Precip. Amount Definition
mm

Wind Dir Definition
10's deg

Wind Spd Definition
km/h
Visibility Definition
km
Stn Press Definition
kPa
Hmdx Definition


Wind Chill Definition


Weather Definition


00:00 -2.2 -6.7 71   8 6 24.1 98.44   -5 Mainly Clear
01:00 -2.3 -6.2 75   36 7 24.1 98.45   -5 Mainly Clear
02:00 -2.0 -6.8 70   2 7 24.1 98.40   -5 Mainly Clear
03:00 -3.4 -6.4 80   1 11 24.1 98.34   -8 Clear
04:00 -3.8 -6.4 82   36 9 24.1 98.32   -8 Clear
05:00 -4.8 -6.7 87   35 11 24.1 98.32   -9 Mainly Clear
06:00 -4.8 -6.5 88   36 11 24.1 98.33   -9 Mainly Clear
07:00 -3.3 -5.6 84   35 13 24.1 98.35   -8 Clear
08:00 -1.2 -5.0 75   36 17 24.1 98.37   -6 Clear
09:00 0.7 -5.4 64   36 30 24.1 98.31     Mainly Clear
10:00 2.4 -5.9 54   36 33 24.1 98.30     Mainly Clear
11:00 2.6 -6.8 50   35 37 24.1 98.25     Cloudy
12:00 1.8 -6.7 53   36 37 24.1 98.21     Cloudy
13:00 2.6 -7.1 49   35 41 24.1 98.15     Cloudy
14:00 3.0 -7.1 47   35 41 24.1 98.10     Mostly Cloudy
15:00 1.1 -7.1 54   33 44 24.1 98.08     Cloudy
16:00 0.3 -7.1 58   36 48 24.1 98.06     Mostly Cloudy
17:00 -0.3 -6.7 62   35 39 24.1 98.07   -8 Mostly Cloudy
18:00 -0.7 -7.0 62   35 41 24.1 98.04   -8 Mostly Cloudy
19:00 -1.3 -6.6 67   34 28 24.1 98.11   -8 Mainly Clear
20:00 -1.6 -6.6 69   33 39 24.1 98.14   -9 Mainly Clear
21:00 -1.8 -6.4 71   34 37 24.1 98.11   -10 Mainly Clear
22:00 -2.1 -5.9 75   33 30 24.1 98.02   -9 Mainly Clear
23:00 -1.9 -5.9 74   33 35 24.1 97.95   -9 Clear

Notes on Data Quality.

Legend

  • E = Estimated
  • M = Missing
  • NA = Not Available*
  • [empty] = Indicates an unobserved value
Date modified: